Location: *
(1.3500°S, 147.5000°W)
Time: 14:01:55
(UTC+00:00)

Mugunghwa Rocket - Pass Details

Date: 07 April 2020
Orbit: 936 x 1372 km, 26.7° (Epoch: 04 June)

Event Time Altitude Azimuth Distance (km) Brightness Sun altitude
Rises 05:10:19 0° 301° (WNW) 4,314 8.6 -19.6°
Reaches altitude 10° 05:13:23 10° 302° (WNW) 3,299 7.7 -20.3°
Maximum altitude 05:21:41 82° 29° (NNE) 1,220 4.4 -22.4°
Enters shadow 05:24:45 41° 111° (ESE) 1,640 4.7 -23.2°
